This is the latest recevied weather packets stored in our database for station/object K5NWZ. If no packets are shown the sender has not sent any weather packets the latest 10 day(s).
| Time | Temp. | Humidity | Pressure | Rain* | Wind** | Luminosity | Snow |
|---|---|---|---|---|---|---|---|
| 1788166055 | 17.22° C | 71% | 1027.5 hPa | 0 mm | - | 0 W/m² | - |
| 1788165751 | 17.22° C | 71% | 1027.4 hPa | 0 mm | - | 0 W/m² | - |
| 1788165447 | 17.22° C | 71% | 1027.5 hPa | 0 mm | - | 0 W/m² | - |
| 1788165142 | 16.67° C | 71% | 1027.3 hPa | 0 mm | - | 0 W/m² | - |
| 1788164840 | 16.67° C | 71% | 1027.5 hPa | 0 mm | - | 0 W/m² | - |
| 1788164531 | 16.67° C | 70% | 1027.5 hPa | 0 mm | - | 0 W/m² | - |
| 1788164225 | 17.22° C | 69% | 1027.4 hPa | 0 mm | - | 0 W/m² | - |
| 1788163921 | 17.78° C | 68% | 1027.3 hPa | 0 mm | - | 0 W/m² | - |
| 1788163617 | 17.78° C | 67% | 1027.6 hPa | 0 mm | - | 0 W/m² | - |
| 1788163316 | 17.78° C | 66% | 1027.5 hPa | 0 mm | - | 0 W/m² | - |
| 1788163012 | 17.78° C | 67% | 1027.7 hPa | 0 mm | - | 0 W/m² | - |
| 1788162708 | 17.78° C | 66% | 1027.7 hPa | 0 mm | - | 0 W/m² | - |
| 1788162406 | 17.78° C | 66% | 1027.5 hPa | 0 mm | - | 0 W/m² | - |
| 1788162101 | 17.78° C | 64% | 1027.7 hPa | 0 mm | - | 0 W/m² | - |
| 1788161796 | 17.22° C | 67% | 1027.6 hPa | 0 mm | - | 0 W/m² | - |
| 1788161496 | 17.22° C | 70% | 1027.7 hPa | 0 mm | - | 0 W/m² | - |
| 1788161191 | 17.22° C | 68% | 1027.7 hPa | 0 mm | - | 0 W/m² | - |
| 1788160888 | 17.78° C | 69% | 1027.7 hPa | 0 mm | - | 0 W/m² | - |
| 1788160586 | 17.22° C | 70% | 1027.7 hPa | 0 mm | - | 0 W/m² | - |
| 1788160281 | 17.78° C | 71% | 1027.6 hPa | 0 mm | - | 0 W/m² | - |
| 1788159981 | 17.78° C | 70% | 1027.6 hPa | 0 mm | - | 0 W/m² | - |
| 1788159675 | 18.33° C | 67% | 1027.7 hPa | 0 mm | - | 0 W/m² | - |
| 1788159374 | 18.33° C | 65% | 1027.7 hPa | 0 mm | - | 0 W/m² | - |
| 1788159068 | 17.78° C | 69% | 1027.9 hPa | 0 mm | - | 0 W/m² | - |
| 1788158763 | 18.33° C | 68% | 1027.7 hPa | 0 mm | - | 0 W/m² | - |
* Rain latest hour (hover to see other rain measurements)
** Current wind speed in m/s (hover to see current wind gust speed)